Regional Weather Roundup
Issued by NWS San Diego, CA

Home | Current Version | Previous Version | Text Only | Print | Product List | Glossary On
Versions: 1 2 3 4 5 6 7 8 9 10 11 12 13 14 15 16 17 18 19 20 21 22 23 24 25 26 27 28 29 30 31 32 33 34 35 36 37 38 39 40 41 42 43 44 45 46 47 48 49 50
000
ASUS46 KSGX 040611
RWRSGX

SAN DIEGO HOURLY WEATHER ROUNDUP
NATIONAL WEATHER SERVICE SAN DIEGO CA
1100 PM PDT MON AUG 03 2015

NOTE: "FAIR" INDICATES FEW OR NO CLOUDS BELOW 12,000 FEET WITH NO
SIGNIFICANT WEATHER AND/OR OBSTRUCTIONS TO VISIBILITY.

CAZ042-043-060-061-PZZ750-775-040700-

GREATER SAN DIEGO AREA

CITY           SKY/WX    TMP DP  RH WIND       PRES   REMARKS
LINDBERGH FLD  PTCLDY    71  64  78 N3        29.90F
POINT LOMA       N/A     68  65  89 NW9         N/A
NATIONAL CITY    N/A     71  66  84 N2        29.90S
CHULA VISTA      N/A     70  66  88 CALM      29.83R
IMPERIAL BEACH PTCLDY    71  65  81 N5        29.89F
BROWN FIELD    MOCLDY    67  65  93 CALM      29.90F
MIRAMAR MCAS   PTCLDY    71  63  75 N5        29.90S
MONTGOMERY FLD PTCLDY    69  64  84 N3        29.90F

$$

NORTH SAN DIEGO COUNTY

CITY           SKY/WX    TMP DP  RH WIND       PRES   REMARKS
CAMP PENDLETON PTCLDY    72  63  73 CALM      29.89S
OCEANSIDE AP   PTCLDY    69  64  84 CALM      29.88S
VISTA            N/A     68  64  85 CALM      29.87S
CARLSBAD       PTCLDY    70  66  87 CALM      29.89S
DEL MAR          N/A     67  65  93 CALM      29.91F
FALLBROOK        N/A     67  67 100 CALM      29.89S
ESCONDIDO        N/A     70  64  82 CALM      29.91S
POWAY            N/A     67  63  86 CALM      29.90S

$$

EAST SAN DIEGO COUNTY

CITY           SKY/WX    TMP DP  RH WIND       PRES   REMARKS
RAMONA         PTCLDY    63  59  87 W6        29.93R
SANTEE LAKES     N/A     68  64  87 CALM      29.89R
LA MESA          N/A     67  64  89 CALM      29.82S
JAMUL            N/A     66  62  86 CALM      29.88S
DESCANSO N       N/A     60  47  62 SE6       29.75S
CAMPO            N/A     63  54  72 NE5       29.95S

$$

ORANGE COUNTY AND THE LOS ANGELES BASIN

CITY           SKY/WX    TMP DP  RH WIND       PRES   REMARKS
JOHN WAYNE AP  PTCLDY    71  63  75 S5        29.88S
SANTA ANA        N/A     73  61  65 CALM      29.83S
HUNTINGTON BCH   N/A     69  65  86 CALM      29.90S
LOS ALAMITOS   FAIR      70  64  81 CALM      29.88S
FULLERTON      CLEAR     74  59  59 CALM      29.87F
LONG BEACH     CLEAR     72  61  68 NW6       29.88S
L.A. AP        PTCLDY    71  64  78 SW6       29.88S
L.A. DOWNTOWN  CLEAR     72  60  66 CALM      29.87S

$$

THE INLAND EMPIRE

CITY           SKY/WX    TMP DP  RH WIND       PRES   REMARKS
CORONA         PTCLDY    70  62  75 CALM      29.90S
CHINO          PTCLDY    73  61  65 W5        29.91S
ONTARIO        PTCLDY    74  59  59 W8        29.90S
RIVERSIDE AP   PTCLDY    73  62  68 W3        29.90F
MORENO VALLEY    N/A     72  66  80 CALM      29.89R
MARCH ARB      PTCLDY    71  62  74 W5        29.92F
HORSETHIEF CYN   N/A     71  56  59 W6        29.91S
PERRIS           N/A     74  63  69 NW3       29.93S
MENIFEE          N/A     75  64  70 CALM      29.95S
HEMET EAST       N/A     73  54  51 CALM      29.89F
FRENCH VALLEY  FAIR      72  61  68 CALM      29.93S
TEMECULA         N/A     71  63  76 CALM      29.87S

$$

SAN BERNARDINO AND RIVERSIDE COUNTY MOUNTAINS

CITY           SKY/WX    TMP DP  RH WIND       PRES   REMARKS
BIG BEAR AP    CLEAR     52  27  37 CALM      30.26S
PINE COVE        N/A     66  17  15 N5        29.86R

$$

SOUTHERN DESERT INCLUDING THE COACHELLA VALLEY

CITY           SKY/WX    TMP DP  RH WIND       PRES   REMARKS
PALM SPRINGS   CLEAR     94  50  22 NW8       29.76R
THOUSAND PALMS   N/A     91  56  30 W17       29.71S
PALM DESERT      N/A     90  57  32 CALM      26.23S
THERMAL        CLEAR     94  53  25 NW15      29.69R
BLYTHE         CLEAR     97  43  15 SW13      29.73R
IMPERIAL AP    CLEAR     93  50  23 S3        29.70S
EL CENTRO NAS  PTCLDY    91  43  18 SW8       29.72S
YUMA AZ        PTCLDY    89  54  30 S5        29.73S

$$

UPPER DESERT

CITY           SKY/WX    TMP DP  RH WIND       PRES   REMARKS
VICTORVILLE AP CLEAR     75  45  33 S10       29.97S
HESPERIA         N/A     76  39  26 W2        29.91R
APPLE VALLEY     N/A     77  44  30 CALM      30.02R
PALMDALE       PTCLDY    80  37  21 SW15      29.95S
LANCASTER      PTCLDY    77  50  38 SW9       29.94S
EDWARDS AFB    MOCLDY    78  41  26 SW12      29.91R
DAGGETT        CLEAR     88  27  11 SW20      29.86S
29 PALMS N     CLEAR     86  30  13 W6        29.93R
NEEDLES        CLEAR     97  36  12 W13       29.74S

$$

REGIONAL REPORTS

CITY           SKY/WX    TMP DP  RH WIND       PRES   REMARKS
SANTA BARBARA  PTCLDY    71  62  73 CALM      29.87R
SANDBERG       PTCLDY    72  47  40 NW18G25   30.10S
LAS VEGAS NV   PTCLDY    93  24   8 S12       29.79R
PHOENIX AZ     PTCLDY    96  54  24 SW5       29.76S
TIJUANA        CLEAR     68  61  77 W3        29.92F
ENSENADA NW      N/A     69  32  25 CALM      29.86F

$$

OFFSHORE ISLANDS

CITY           SKY/WX    TMP DP  RH WIND       PRES   REMARKS
CATALINA ARPT  CLEAR     68  53  58 W8        29.94S
SAN NICOLAS IS PTCLDY   N/A N/A N/A NW31G43   29.91S

$$

MARINE AND OFFSHORE BUOY REPORTS

STATION/POSITION SKY/WX   TEMP    WIND        PRES    SWELL
                          AIR SEA DIR/SP/G            HT/PER/DIR
                          (F)     (DEG/KT/KT) (MB)    (FT/S/D)
TANNER BANKS               67 69  320/ 21/ 27 1013.1F   2/290/16
S CLEMENTE BASIN           68 70  310/ 17/ 19 1012.1S   2/220/15
SAN NICOLAS IS.               65                N/A     2/190/15
SO. S. ROSA ISLA           65 67  310/ 23/ 29 1012.0R   2/16
W. S. BARBARA CH           63 62  320/ 21/ 25 1012.7R   2/140/15
M. S. BARBARA CH           68 67  270/ 14/ 17 1011.6R
S. MONICA BASIN            70 71  260/  8/  8 1011.7R   3/260/ 6
S PEDRO CHANNEL               72                N/A     2/170/15
DANA POINT                    72                N/A     2/200/15
OCEANSIDE OFFSHR              72                N/A     2/200/15
TORREY PINES OTR              72                N/A     2/190/15
LA JOLLA 1                 70 71   20/  2/  3 1012.3R
MISSION BAY BUOY              72                N/A     2/200/15
SAN DIEGO BAY                 76              1013.0R
POINT LOMA SOUTH              72                N/A     2/190/15

$$



USA.gov is the U.S. government's official web portal to all federal, state and local government web resources and services.